Cloverdale, Indiana, United States (46120)
Lat: 39.51N, Lon: 86.79W
Wx Zone: INZ045
Local Info
Past Weather Observations for Tuesday, March 3, 2015

NOTE: This archive is for the closest National Weather Service station to Cloverdale. Information may differ from the station used for current weather conditions.

Click here for Long-term Archive

Time Weather Temperature Dewpoint Humidity Pressure Winds Precip Visibility
23:53
Overcast
Rain
39°F / 4°C 37°F / 3°C 93% 29.89 in
(1012 mb)
NW 4.6 mph
(NW 7 kph)
0.06 in
(1.52 mm)
3SM
22:53
Overcast
Light Rain
39°F / 4°C 37°F / 3°C 93% 29.92 in
(1013 mb)
WNW 9.2 mph
(WNW 15 kph)
0.03 in
(0.76 mm)
4SM
22:17
Overcast
Light Rain
39°F / 4°C 39°F / 4°C 100% 29.89 in
(1012 mb)
W 6.9 mph
(W 11 kph)
0.01 in
(0.25 mm)
5SM
21:53
Overcast
Light Rain
39°F / 4°C 39°F / 4°C 100% 29.89 in
(1012 mb)
SSW 5.8 mph
(SSW 9 kph)
0.01 in
(0.25 mm)
7SM
21:43
Overcast
Light Rain
39°F / 4°C 39°F / 4°C 100% 29.89 in
(1012 mb)
W 6.9 mph
(W 11 kph)
0.01 in
(0.25 mm)
6SM
20:53
Overcast
Light Rain
41°F / 5°C 39°F / 4°C 93% 29.86 in
(1011 mb)
W 5.8 mph
(W 9 kph)
0.01 in
(0.25 mm)
5SM
20:44
Overcast
Light Rain
41°F / 5°C 39°F / 4°C 93% 29.86 in
(1011 mb)
W 4.6 mph
(W 7 kph)
0.00 in
(0.00 mm)
6SM
20:35
Overcast
Light Rain
41°F / 5°C 39°F / 4°C 93% 29.86 in
(1011 mb)
SSW 6.9 mph
(SSW 11 kph)
0.00 in
(0.00 mm)
6SM
20:26
Overcast
Light Rain
41°F / 5°C 39°F / 4°C 93% 29.86 in
(1011 mb)
SSW 6.9 mph
(SSW 11 kph)
0.00 in
(0.00 mm)
6SM
19:53
Overcast
Light Rain
41°F / 5°C 39°F / 4°C 93% 29.86 in
(1011 mb)
W 5.8 mph
(W 9 kph)
0.03 in
(0.76 mm)
8SM
19:11
Overcast
Light Rain
43°F / 6°C 41°F / 5°C 93% 29.83 in
(1010 mb)
W 9.2 mph
(W 15 kph)
0.01 in
(0.25 mm)
4SM
19:03
Overcast
Light Rain
43°F / 6°C 41°F / 5°C 93% 29.83 in
(1010 mb)
W 11.5 mph
(W 19 kph)
0.01 in
(0.25 mm)
4SM
18:53
Overcast
Light Rain
43°F / 6°C 43°F / 6°C 100% 29.83 in
(1010 mb)
W 9.2 mph
(W 15 kph)
0.01 in
(0.25 mm)
2 1/2SM
18:48
Overcast
Light Rain
43°F / 6°C 43°F / 6°C 100% 29.83 in
(1010 mb)
WNW 9.2 mph
(WNW 15 kph)
0.01 in
(0.25 mm)
2 1/2SM
18:11
Overcast
Light Rain
43°F / 6°C 43°F / 6°C 100% 29.8 in
(1009 mb)
SSW 10.4 mph
(SSW 17 kph)
0.01 in
(0.25 mm)
1 1/4SM
17:53
Overcast
Light Rain
45°F / 7°C 43°F / 6°C 93% 29.8 in
(1009 mb)
SSW 11.5 mph
(SSW 19 kph)
0.00 in
(0.00 mm)
1/2SM
17:28
Overcast
Light Rain
45°F / 7°C 43°F / 6°C 93% 29.8 in
(1009 mb)
SSW 13.8 mph
(SSW 22 kph)
0.00 in
(0.00 mm)
1 1/2SM
16:53
Overcast
Fog And Mist
45°F / 7°C 43°F / 6°C 93% 29.77 in
(1008 mb)
SSW 13.8 mph
(SSW 22 kph)
0.00 in
(0.00 mm)
2SM
16:26
Overcast
Fog And Mist
45°F / 7°C 43°F / 6°C 93% 29.77 in
(1008 mb)
SSW 17.3 mph
(SSW 28 kph)
0.00 in
(0.00 mm)
3SM
16:15
Overcast
Light Rain
45°F / 7°C 43°F / 6°C 93% 29.77 in
(1008 mb)
SSW 16.1 mph
(SSW 26 kph)
0.00 in
(0.00 mm)
2SM
16:04
Overcast
Light Rain
45°F / 7°C 43°F / 6°C 93% 29.77 in
(1008 mb)
SSW 17.3 mph
(SSW 28 kph)
0.00 in
(0.00 mm)
1 3/4SM
15:53
Overcast
Light Rain
45°F / 7°C 43°F / 6°C 93% 29.77 in
(1008 mb)
SSW 13.8 mph
(SSW 22 kph)
0.00 in
(0.00 mm)
2SM
15:41
Overcast
Light Rain
45°F / 7°C 43°F / 6°C 93% 29.77 in
(1008 mb)
SSW 16.1 mph
(SSW 26 kph)
0.00 in
(0.00 mm)
2SM
15:20
Overcast
Light Rain
45°F / 7°C 45°F / 7°C 100% 29.77 in
(1008 mb)
SSW 16.1 mph
(SSW 26 kph)
0.00 in
(0.00 mm)
1 3/4SM
15:08
Overcast
Light Rain
45°F / 7°C 45°F / 7°C 100% 29.77 in
(1008 mb)
SW 16.1 mph
(SW 26 kph)
0.00 in
(0.00 mm)
2 1/2SM
14:53
Overcast
Light Rain
45°F / 7°C 45°F / 7°C 100% 29.77 in
(1008 mb)
SSW 16.1 mph
(SSW 26 kph)
0.12 in
(3.05 mm)
2SM
14:45
Overcast
Light Rain
45°F / 7°C 43°F / 6°C 93% 29.77 in
(1008 mb)
SW 15 mph
(SW 24 kph)
0.11 in
(2.79 mm)
3SM
14:32
Overcast
Heavy Rain
45°F / 7°C 43°F / 6°C 93% 29.77 in
(1008 mb)
SSW 16.1 mph
(SSW 26 kph)
0.10 in
(2.54 mm)
1SM
14:10
Overcast
Rain
43°F / 6°C 43°F / 6°C 100% 29.8 in
(1009 mb)
SW 15 mph
(SW 24 kph)
0.03 in
(0.76 mm)
2 1/2SM
13:53
Overcast
Light Rain
43°F / 6°C 43°F / 6°C 100% 29.8 in
(1009 mb)
SW 17.3 mph
(SW 28 kph)
0.01 in
(0.25 mm)
4SM
13:14
Overcast
Light Rain
43°F / 6°C 41°F / 5°C 93% 29.8 in
(1009 mb)
SW 16.1 mph
(SW 26 kph)
0.00 in
(0.00 mm)
10SM
12:53
Overcast
Light Rain
43°F / 6°C 41°F / 5°C 93% 29.83 in
(1010 mb)
SW 10.4 mph
(SW 17 kph)
0.07 in
(1.78 mm)
5SM
12:36
Overcast
Light Rain
39°F / 4°C 39°F / 4°C 100% 29.83 in
(1010 mb)
SW 10.4 mph
(SW 17 kph)
0.07 in
(1.78 mm)
3SM
11:53
Overcast
Light Rain
37°F / 3°C 36°F / 2°C 93% 29.86 in
(1011 mb)
SW 5.8 mph
(SW 9 kph)
0.04 in
(1.02 mm)
1 3/4SM
11:33
Overcast
Light Rain
36°F / 2°C 34°F / 1°C 93% 29.86 in
(1011 mb)
S 8.1 mph
(S 13 kph)
0.03 in
(0.76 mm)
2 1/2SM
11:20
Overcast
Light Rain
34°F / 1°C 34°F / 1°C 100% 29.89 in
(1012 mb)
S 9.2 mph
(S 15 kph)
0.02 in
(0.51 mm)
2SM
10:53
Overcast
Heavy Rain
34°F / 1°C 30°F / -1°C 87% 29.89 in
(1012 mb)
S 9.2 mph
(S 15 kph)
0.09 in
(2.29 mm)
1 1/4SM
10:44
Overcast
Light Rain
34°F / 1°C 30°F / -1°C 87% 29.89 in
(1012 mb)
S 8.1 mph
(S 13 kph)
0.05 in
(1.27 mm)
2 1/2SM
10:30
Overcast
Unknown Precip
32°F / 0°C 30°F / -1°C 93% 29.89 in
(1012 mb)
SSE 11.5 mph
(SSE 19 kph)
0.05 in
(1.27 mm)
1SM
10:15
Overcast
Unknown Precip
32°F / 0°C 30°F / -1°C 93% 29.92 in
(1013 mb)
SSE 11.5 mph
(SSE 19 kph)
0.01 in
(0.25 mm)
2SM
09:53
Overcast
Fog And Mist
30°F / -1°C 28°F / -2°C 93% 29.95 in
(1014 mb)
SSE 10.4 mph
(SSE 17 kph)
0.01 in
(0.25 mm)
3SM
09:47
Overcast
Unknown Precip
30°F / -1°C 28°F / -2°C 93% 29.95 in
(1014 mb)
SSE 10.4 mph
(SSE 17 kph)
0.01 in
(0.25 mm)
3SM
09:04
Overcast
Unknown Precip
30°F / -1°C 27°F / -3°C 86% 29.98 in
(1015 mb)
SSE 10.4 mph
(SSE 17 kph)
0.00 in
(0.00 mm)
2SM
08:53
Overcast
Unknown Precip
30°F / -1°C 25°F / -4°C 80% 29.98 in
(1015 mb)
SSE 9.2 mph
(SSE 15 kph)
0.00 in
(0.00 mm)
1 3/4SM
08:44
Overcast
Unknown Precip
30°F / -1°C 25°F / -4°C 80% 30.01 in
(1016 mb)
SE 12.7 mph
(SE 20 kph)
0.00 in
(0.00 mm)
2 1/2SM
07:53
Overcast
30°F / -1°C 21°F / -6°C 69% 30.01 in
(1016 mb)
SSE 8.1 mph
(SSE 13 kph)
0.00 in
(0.00 mm)
10SM
06:53
Overcast
30°F / -1°C 19°F / -7°C 64% 30.06 in
(1018 mb)
SSE 9.2 mph
(SSE 15 kph)
- 10SM
05:53
Overcast
30°F / -1°C 19°F / -7°C 64% 30.09 in
(1019 mb)
SSE 9.2 mph
(SSE 15 kph)
- 10SM
04:53
Overcast
30°F / -1°C 18°F / -8°C 59% 30.06 in
(1018 mb)
SE 10.4 mph
(SE 17 kph)
- 10SM
03:53
Overcast
28°F / -2°C 18°F / -8°C 64% 30.12 in
(1020 mb)
SE 10.4 mph
(SE 17 kph)
- 10SM
02:53
Overcast
28°F / -2°C 18°F / -8°C 64% 30.18 in
(1022 mb)
SE 6.9 mph
(SE 11 kph)
- 10SM
01:53
Partly Cloudy
28°F / -2°C 16°F / -9°C 59% 30.21 in
(1023 mb)
SE 11.5 mph
(SE 19 kph)
- 10SM
00:53
Clear
27°F / -3°C 16°F / -9°C 64% 30.24 in
(1024 mb)
SE 4.6 mph
(SE 7 kph)
- 10SM
Time Weather Temperature Dewpoint Humidity Pressure Winds Precip Visibility


Weather for websites

WeatherForYou.com, LLC is not responsible for any damages or problems caused by this service. Current weather conditions are obtained from the closest station including government and personal stations which may have varying degrees of accuracy. Weather forecasts are derived from the NOAA NDFD. Like all things, this site belongs to Jesus Christ... He just trusts me to maintain it. If you have any questions or comments email webmaster@weatherforyou.com

Copyright © 2015, WeatherForYou.com LLC. All rights reserved.